Location: B?dimalle
(17.1788°N, 80.5377°E)
Time: 08:58:31
(UTC+00:00)

Courier 1B Rocket - Pass Details

Date: 21 December 2025
Orbit: 920 x 1201 km, 28.2° (Epoch: 25 January)

Event Time Altitude Azimuth Distance (km) Brightness Sun altitude
Rises 15:43:16 0° 289° (WNW) 4,066 8.7 -49.1°
Reaches altitude 10° 15:46:23 10° 297° (WNW) 3,118 7.9 -49.9°
Enters shadow 15:47:00 12° 300° (WNW) 2,942 7.8 -50.0°
